Weather in Lesnikovo

Russia / Kurgan Oblast     55°17′21″N   65°19′13″E
temp.,
°C
wind,
m/s
gust,
m/s
humid.,
%
clouds,
%
prec.,
mm/h
press.,
hPa
HPBL,
m
25 february, thu
thu2523:00−20nne91592100 0.4 1012765
02:00−21n71393100 0.1 1015725
05:00−23n71294100 0.2 1017586
08:00−25nnw51193100 0.1 1019504
11:00−24nnw599199 0.1 1023455
14:00−21nnw589194 0.0 1024478
17:00−21wnw369496 0.0 1027204
20:00−26wnw339677 0.0 102823
26 february, fri
fri2623:00−27w239873 0.0 103021
02:00−27wsw239995 0.0 103024
05:00−27sw239995 0.1 103021
08:00−28ssw339993 0.0 103138
11:00−24ssw359787 0.0 1031195
14:00−21ssw469340 0.0 1031294
17:00−22s369321 0.0 1031205
20:00−27s47930 0.0 103090
27 february, sat
sat2723:00−29s46962 0.0 103081
02:00−30s44979 0.0 102972
05:00−31sse44959 0.0 102873
08:00−31sse47950 0.0 1027106
11:00−24sse489310 0.0 1026276
14:00−20se599474 0.0 1023305
17:00−18se6129387 0.1 1020436
20:00−15se71393100 0.3 1017487
28 february, sun
sun2823:00−10se71393100 0.9 1014664
02:00−9se61293100 0.6 1012561
05:00−9se61193100 0.8 1010426
08:00−9se51093100 0.2 1008372
11:00−7se5894100 0.7 1007412
14:00−5ese4694100 0.6 1006439
17:00−5e3596100 1.6 1006310
20:00−6ene3496100 0.6 1007118
1 march, mon
mon123:00−8ne3396100 1.1 100860
02:00−11nne349797 0.1 100942
05:00−12nne369798 0.1 1010126
08:00−13nne4796100 0.1 1012204
11:00−12nne4594100 0.1 1012269
14:00−10n3490100 0.0 1013386
17:00−11ne2394100 0.1 1014104
20:00−15ene2295100 0.0 101420